User: anonymous   Login
Location: Kuffner-Sternwarte
(48.2130°N, 16.2960°E)
Time: 11:54:36
(UTC+02:00)
Language:

Mir - Orbit

View from above orbital plane
View from above orbital plane
View from above satellite
View from above satellite

Ground track
Ground track

The orbit data is extracted from the following two-line orbital elements,

1 16609U 86017A   01082.20636684  .00382588  12180-4  29147-4 0  9997
2 16609 051.6362 249.6171 0048914 224.8684 134.9353 16.33569098863305
Epoch (UTC): 23 March 2001 04:57:10
Eccentricity: 0.0048914
inclination: 51.6362°
perigee height: 151 km
apogee height: 215 km
right ascension of ascending node: 249.6171°
argument of perigee: 224.8684°
revolutions per day: 16.33569098
mean anomaly at epoch: 134.9353°
orbit number at epoch: 86330

The dashed part of the orbit path shows where the satellite is in the earth's shadow,  

DLR